Waarnemingen

Advertentie
Mijn weer
Murcia/Alcantarilla, Spanje (8429): temperatuur & dauwpunt: 22.05.2018 07:00:00 - 28.05.2018 07:00:00 (CEST)Murcia/Alcantarilla, Spanje (8429): windsnelheid: 22.05.2018 07:00:00 - 28.05.2018 07:00:00 (CEST)Murcia/Alcantarilla, Spanje (8429): windrichting: 22.05.2018 07:00:00 - 28.05.2018 07:00:00 (CEST)Murcia/Alcantarilla, Spanje (8429): luchtdruk: 22.05.2018 07:00:00 - 28.05.2018 07:00:00 (CEST)Murcia/Alcantarilla, Spanje (8429): zicht: 22.05.2018 07:00:00 - 28.05.2018 07:00:00 (CEST)
Datum & Tijd tt [°C] td [°C] ff [km/u] ff [kn] dd ppp [hPa] vv [km]
28.05.2018 07:00:00 - - - - - - -
28.05.2018 06:00:00 - - - - - - -
28.05.2018 05:00:00 - - - - - - -
28.05.2018 04:00:00 - - - - - - -
28.05.2018 03:00:00 - - - - - - -
28.05.2018 02:00:00 - - - - - - -
28.05.2018 01:00:00 - - - - - - -
28.05.2018 00:00:00 - - - - - - -
27.05.2018 23:00:00 - - - - - - -
27.05.2018 22:00:00 - - - - - - -
27.05.2018 21:00:00 - - - - - - -
27.05.2018 20:00:00 26,0 11,0 15 8 NNW 1011,9 50
27.05.2018 19:00:00 - - - - - - -
27.05.2018 18:00:00 - - - - - - -
27.05.2018 17:00:00 27,2 13,2 9 5 N 1011,4 30
27.05.2018 16:00:00 - - - - - - -
27.05.2018 15:00:00 - - - - - - -
27.05.2018 14:00:00 24,5 15,1 16 9 ZW 1012,8 30
27.05.2018 13:00:00 - - - - - - -
27.05.2018 12:00:00 - - - - - - -
27.05.2018 11:00:00 22,6 14,4 8 4 N 1013,7 20
27.05.2018 10:00:00 - - - - - - -
27.05.2018 09:00:00 - - - - - - -
27.05.2018 08:00:00 17,2 14,5 4 2 N 1013,2 20
27.05.2018 07:00:00 - - - - - - -
27.05.2018 06:00:00 - - - - - - -
27.05.2018 05:00:00 - - - - - - -
27.05.2018 04:00:00 - - - - - - -
27.05.2018 03:00:00 - - - - - - -
27.05.2018 02:00:00 - - - - - - -
27.05.2018 01:00:00 - - - - - - -
27.05.2018 00:00:00 - - - - - - -
26.05.2018 23:00:00 - - - - - - -
26.05.2018 22:00:00 - - - - - - -
26.05.2018 21:00:00 - - - - - - -
26.05.2018 20:00:00 25,2 12,1 18 10 ZO 1011,5 50
26.05.2018 19:00:00 - - - - - - -
26.05.2018 18:00:00 - - - - - - -
26.05.2018 17:00:00 26,6 13,0 24 13 ONO 1011,4 40
26.05.2018 16:00:00 - - - - - - -
26.05.2018 15:00:00 - - - - - - -
26.05.2018 14:00:00 26,0 14,8 21 11 ONO 1012,1 40
26.05.2018 13:00:00 - - - - - - -
26.05.2018 12:00:00 - - - - - - -
26.05.2018 11:00:00 22,8 13,6 8 4 N 1012,8 30
26.05.2018 10:00:00 - - - - - - -
26.05.2018 09:00:00 - - - - - - -
26.05.2018 08:00:00 18,4 15,6 0 0 N 1013,3 30
26.05.2018 07:00:00 - - - - - - -
26.05.2018 06:00:00 - - - - - - -
26.05.2018 05:00:00 - - - - - - -
26.05.2018 04:00:00 - - - - - - -
26.05.2018 03:00:00 - - - - - - -
26.05.2018 02:00:00 - - - - - - -
26.05.2018 01:00:00 - - - - - - -
26.05.2018 00:00:00 - - - - - - -
25.05.2018 23:00:00 - - - - - - -
25.05.2018 22:00:00 - - - - - - -
25.05.2018 21:00:00 - - - - - - -
25.05.2018 20:00:00 27,8 7,6 34 18 Z 1008,9 40
25.05.2018 19:00:00 - - - - - - -
25.05.2018 18:00:00 - - - - - - -
25.05.2018 17:00:00 30,8 13,6 15 8 ZW 1009,3 40
25.05.2018 16:00:00 - - - - - - -
25.05.2018 15:00:00 - - - - - - -
25.05.2018 14:00:00 27,4 12,2 5 3 N 1010,6 40
25.05.2018 13:00:00 - - - - - - -
25.05.2018 12:00:00 - - - - - - -
25.05.2018 11:00:00 24,2 12,8 15 8 ZW 1011,6 40
25.05.2018 10:00:00 - - - - - - -
25.05.2018 09:00:00 - - - - - - -
25.05.2018 08:00:00 20,6 12,8 9 5 WNW 1011,3 50
25.05.2018 07:00:00 - - - - - - -
25.05.2018 06:00:00 - - - - - - -
25.05.2018 05:00:00 - - - - - - -
25.05.2018 04:00:00 - - - - - - -
25.05.2018 03:00:00 - - - - - - -
25.05.2018 02:00:00 - - - - - - -
25.05.2018 01:00:00 - - - - - - -
25.05.2018 00:00:00 - - - - - - -
24.05.2018 23:00:00 - - - - - - -
24.05.2018 22:00:00 - - - - - - -
24.05.2018 21:00:00 - - - - - - -
24.05.2018 20:00:00 24,0 12,0 22 12 O 1012,0 50
24.05.2018 19:00:00 - - - - - - -
24.05.2018 18:00:00 - - - - - - -
24.05.2018 17:00:00 26,4 11,3 29 16 ONO 1012,2 50
24.05.2018 16:00:00 - - - - - - -
24.05.2018 15:00:00 - - - - - - -
24.05.2018 14:00:00 26,6 8,6 28 15 ONO 1014,1 50
24.05.2018 13:00:00 - - - - - - -
24.05.2018 12:00:00 - - - - - - -
24.05.2018 11:00:00 23,0 7,9 8 4 N 1015,8 50
24.05.2018 10:00:00 - - - - - - -
24.05.2018 09:00:00 - - - - - - -
24.05.2018 08:00:00 18,5 7,6 4 2 N 1015,8 50
24.05.2018 07:00:00 - - - - - - -
24.05.2018 06:00:00 - - - - - - -
24.05.2018 05:00:00 - - - - - - -
24.05.2018 04:00:00 - - - - - - -
24.05.2018 03:00:00 - - - - - - -
24.05.2018 02:00:00 - - - - - - -
24.05.2018 01:00:00 - - - - - - -
24.05.2018 00:00:00 - - - - - - -
23.05.2018 23:00:00 - - - - - - -
23.05.2018 22:00:00 - - - - - - -
23.05.2018 21:00:00 - - - - - - -
23.05.2018 20:00:00 24,8 4,0 18 10 ONO 1016,1 50
23.05.2018 19:00:00 - - - - - - -
23.05.2018 18:00:00 - - - - - - -
23.05.2018 17:00:00 26,4 3,6 18 10 ZO 1015,7 50
23.05.2018 16:00:00 - - - - - - -
23.05.2018 15:00:00 - - - - - - -
23.05.2018 14:00:00 27,3 8,7 15 8 ONO 1016,6 40
23.05.2018 13:00:00 - - - - - - -
23.05.2018 12:00:00 - - - - - - -
23.05.2018 11:00:00 21,2 13,6 5 3 NNO 1017,6 5
23.05.2018 10:00:00 - - - - - - -
23.05.2018 09:00:00 - - - - - - -
23.05.2018 08:00:00 15,2 11,8 4 2 N 1016,9 4,0
23.05.2018 07:00:00 - - - - - - -
23.05.2018 06:00:00 - - - - - - -
23.05.2018 05:00:00 - - - - - - -
23.05.2018 04:00:00 - - - - - - -
23.05.2018 03:00:00 - - - - - - -
23.05.2018 02:00:00 - - - - - - -
23.05.2018 01:00:00 - - - - - - -
23.05.2018 00:00:00 - - - - - - -
22.05.2018 23:00:00 - - - - - - -
22.05.2018 22:00:00 - - - - - - -
22.05.2018 21:00:00 - - - - - - -
22.05.2018 20:00:00 26,3 6,9 16 9 Z 1013,1 50
22.05.2018 19:00:00 - - - - - - -
22.05.2018 18:00:00 - - - - - - -
22.05.2018 17:00:00 29,2 8,3 18 10 ZO 1012,4 50
22.05.2018 16:00:00 - - - - - - -
22.05.2018 15:00:00 - - - - - - -
22.05.2018 14:00:00 28,2 8,5 8 4 N 1013,4 50
22.05.2018 13:00:00 - - - - - - -
22.05.2018 12:00:00 - - - - - - -
22.05.2018 11:00:00 23,2 10,9 4 2 ZZW 1014,5 50
22.05.2018 10:00:00 - - - - - - -
22.05.2018 09:00:00 - - - - - - -
22.05.2018 08:00:00 14,5 10,9 4 2 N 1014,0 12
22.05.2018 07:00:00 - - - - - - -

tt = temperatuur
td = dauwpunt
ff = windsnelheid
dd = windrichting
ppp = luchtdruk
vv = zicht

Weerstations in de omgeving